This is the latest recevied weather packets stored in our database for station/object N5CSU. If no packets are shown the sender has not sent any weather packets the latest 10 day(s).
| Time | Temp. | Humidity | Pressure | Rain* | Wind** | Luminosity | Snow |
|---|---|---|---|---|---|---|---|
| 1788243599 | 31.11° C | 54% | 1015.9 hPa | 0 mm | - | 0 W/m² | - |
| 1788243300 | 31.11° C | 53% | 1015.8 hPa | 0 mm | - | 0 W/m² | - |
| 1788242994 | 30.56° C | 53% | 1015.5 hPa | 0 mm | - | 0 W/m² | - |
| 1788242684 | 30.56° C | 54% | 1015.6 hPa | 0 mm | - | 0 W/m² | - |
| 1788242393 | 30.56° C | 53% | 1015.8 hPa | 0 mm | - | 0 W/m² | - |
| 1788242081 | 30.56° C | 53% | 1015.6 hPa | 0 mm | - | 0 W/m² | - |
| 1788241777 | 30.56° C | 53% | 1015.4 hPa | 0 mm | - | 0 W/m² | - |
| 1788241474 | 30.56° C | 52% | 1015.4 hPa | 0 mm | - | 0 W/m² | - |
| 1788241170 | 31.11° C | 51% | 1015.3 hPa | 0 mm | - | 0 W/m² | - |
| 1788240865 | 31.11° C | 51% | 1015.2 hPa | 0 mm | - | 0 W/m² | - |
| 1788240561 | 31.11° C | 51% | 1015.2 hPa | 0 mm | - | 0 W/m² | - |
| 1788240255 | 31.11° C | 50% | 1015.4 hPa | 0 mm | - | 0 W/m² | - |
| 1788239954 | 31.11° C | 50% | 1015.2 hPa | 0 mm | - | 0 W/m² | - |
| 1788239650 | 31.11° C | 50% | 1015.3 hPa | 0 mm | - | 0 W/m² | - |
| 1788239344 | 31.11° C | 51% | 1015.1 hPa | 0 mm | - | 0 W/m² | - |
| 1788239040 | 31.11° C | 49% | 1015 hPa | 0 mm | - | 0 W/m² | - |
| 1788238739 | 31.11° C | 50% | 1015.4 hPa | 0 mm | - | 0 W/m² | - |
| 1788238435 | 30.56° C | 51% | 1015 hPa | 0 mm | - | 0 W/m² | - |
| 1788238130 | 30° C | 54% | 1014.9 hPa | 0 mm | - | 0 W/m² | - |
| 1788237826 | 29.44° C | 53% | 1014.7 hPa | 0 mm | - | 0 W/m² | - |
| 1788237522 | 28.89° C | 55% | 1014.9 hPa | 0 mm | - | 0 W/m² | - |
| 1788237218 | 28.89° C | 56% | 1015.1 hPa | 0 mm | - | 0 W/m² | - |
| 1788236916 | 28.89° C | 56% | 1014.8 hPa | 0 mm | - | 0 W/m² | - |
| 1788236611 | 28.89° C | 56% | 1014.9 hPa | 0 mm | - | 0 W/m² | - |
| 1788236306 | 28.89° C | 56% | 1014.9 hPa | 0 mm | - | 0 W/m² | - |
* Rain latest hour (hover to see other rain measurements)
** Current wind speed in m/s (hover to see current wind gust speed)